Regional Weather Roundup
Issued by NWS

Home | Current Version | Previous Version | Text Only | Print | Product List | Glossary Off
Versions: 1 2 3 4 5 6 7 8 9 10 11 12 13 14 15 16 17 18 19 20 21 22 23 24 25 26 27 28 29 30 31 32 33 34 35 36 37 38 39 40 41 42 43 44 45 46 47 48 49 50

000
ASUS43 KLMK 031702
RWRKY
KENTUCKY REGIONAL WEATHER ROUNDUP
NATIONAL WEATHER SERVICE LOUISVILLE KY
100 PM EDT SUN MAY 03 2015

NOTE "FAIR" INDICATES FEW OR NO CLOUDS BELOW 12,000 FEET
WITH NO SIGNIFICANT WEATHER AND/OR OBSTRUCTIONS TO VISIBILITY.

KYZ001>023-026-027-061>063-070>075-031800-
WESTERN AND SOUTH CENTRAL KENTUCKY

CITY           SKY/WX    TMP DP  RH WIND       PRES   REMARKS
PADUCAH        PTSUNNY   77  45  32 S8G18     30.10S
HENDERSON      SUNNY     79  46  31 S10G16    30.09S
OWENSBORO      SUNNY     77  52  41 SW8       30.12F
HOPKINSVILLE   SUNNY     76  51  42 S10       30.12F
BOWLING GREEN  MOSUNNY   77  49  37 S13       30.14F
GLASGOW        NOT AVBL
$$

KYZ024-025-028>034-038-045-046-053-031800-
NORTH CENTRAL KENTUCKY

CITY           SKY/WX    TMP DP  RH WIND       PRES   REMARKS
LOUISVILLE/SDF MOSUNNY   76  47  35 S10G18    30.12F
LOUISVILLE/LOU MOSUNNY   76  48  37 S9        30.13F
FORT KNOX      MOSUNNY   76  49  38 S14G21    30.12S
$$

KYZ035>037-039>044-047>052-055>060-089>105-031800-
NORTHEAST KENTUCKY

CITY           SKY/WX    TMP DP  RH WIND       PRES   REMARKS
LEXINGTON      PTSUNNY   75  48  38 S9        30.15F
COVINGTON      MOSUNNY   74  48  39 S9G17     30.13F
FRANKFORT      PTSUNNY   73  46  38 CALM      30.13F
$$

KYZ054-064>069-076>088-106>120-031800-
SOUTHEAST KENTUCKY

CITY           SKY/WX    TMP DP  RH WIND       PRES   REMARKS
JACKSON        MOSUNNY   72  41  32 VRB3      30.17F
LONDON         MOSUNNY   74  38  27 W9        30.16F
SOMERSET       NOT AVBL
MIDDLESBORO    NOT AVBL
MONTICELLO     MOSUNNY   77  48  35 S8        30.18F
$$



USA.gov is the U.S. government's official web portal to all federal, state and local government web resources and services.